Weather History for Plattsburgh, NY

Change the Weather History Date:

Monday, October 24, 2011

  Actual Average Record
Temperature  
Mean Temperature 46 °F 45 °F  
Max Temperature 61 °F 54 °F 75 °F (1963)
Min Temperature 31 °F 35 °F 21 °F (1969)
Degree Days  
Heating Degree Days 19 20  
Month to date heating degree days 295 394  
Since 1 July heating degree days 433 629  
Cooling Degree Days 0 0  
Month to date cooling degree days 0 0  
Year to date cooling degree days 444 345  
Moisture  
Dew Point 39 °F    
Average Humidity 72    
Maximum Humidity 96    
Minimum Humidity 47    
Precipitation  
Precipitation 0.11 in - 1.02 in (1992)
Month to date precipitation 3.19  
Year to date precipitation 36.01  
Sea Level Pressure  
Sea Level Pressure 29.97 in    
Wind  
Wind Speed 6 mph (SSE)    
Max Wind Speed 23 mph    
Max Gust Speed 31 mph    
Visibility 9 miles    
Events Rain    
T = Trace of Precipitation, MM = Missing Value Source: NWS Daily Summary

Daily Weather History Graph

Daily Weather History Graph

Search for Another Location

Airport:

Trip Planner

Search our weather history database for the weather conditions in past years. The results will help you decide how hot, cold, wet, or windy it might be!

Date:

Astronomy

Oct. 24, 2011 Rise Set
Actual Time 7:20 AM EDT 5:54 PM EDT
Civil Twilight 6:50 AM EDT 6:24 PM EDT
Nautical Twilight 6:16 AM EDT 6:58 PM EDT
Astronomical Twilight 5:42 AM EDT 7:32 PM EDT
Moon 4:30 AM EDT (10/24) 4:21 PM EDT (10/24)
Length of Visible Light 11h 34m
Length of Day
10h 34m
Waning Crescent, 7% of the Moon is Illuminated
Oct 24
Waning Crescent
Oct 26
New
Nov 2
First Quarter
Nov 10
Full
Nov 18
Last Quarter

Hourly Weather History & Observations

Time (EDT) Temp. Dew Point Humidity Pressure Visibility Wind Dir Wind Speed Gust Speed Precip Events Conditions
12:53 AM 37.9 °F 36.0 °F 93% 30.10 in 9.0 mi Calm Calm - N/A   Clear
1:53 AM 36.0 °F 34.0 °F 93% 30.09 in 7.0 mi Calm Calm - N/A   Clear
2:53 AM 35.1 °F 33.1 °F 92% 30.08 in 8.0 mi Calm Calm - N/A   Clear
3:53 AM 33.1 °F 32.0 °F 96% 30.08 in 7.0 mi Calm Calm - N/A   Clear
4:53 AM 33.1 °F 32.0 °F 96% 30.07 in 7.0 mi Calm Calm - N/A   Clear
5:53 AM 32.0 °F 30.0 °F 92% 30.06 in 5.0 mi Calm Calm - N/A   Clear
6:53 AM 32.0 °F 30.0 °F 92% 30.05 in 5.0 mi Calm Calm - N/A   Clear
7:53 AM 32.0 °F 30.0 °F 92% 30.04 in 6.0 mi Calm Calm - N/A   Clear
8:53 AM 37.9 °F 35.1 °F 89% 30.04 in 10.0 mi Calm Calm - N/A   Clear
9:53 AM 46.0 °F 37.9 °F 73% 30.02 in 10.0 mi Calm Calm - N/A   Clear
10:53 AM 51.1 °F 39.9 °F 66% 30.00 in 10.0 mi SSE 9.2 mph - N/A   Clear
11:53 AM 53.1 °F 41.0 °F 64% 29.97 in 10.0 mi SSE 20.7 mph - N/A   Clear
12:53 PM 57.0 °F 43.0 °F 59% 29.93 in 10.0 mi SSE 15.0 mph 24.2 mph N/A   Clear
1:53 PM 57.0 °F 42.1 °F 57% 29.88 in 10.0 mi SSE 18.4 mph 25.3 mph N/A   Clear
2:53 PM 61.0 °F 42.1 °F 50% 29.86 in 10.0 mi SSE 17.3 mph 25.3 mph N/A   Clear
3:53 PM 59.0 °F 39.9 °F 49% 29.83 in 10.0 mi South 17.3 mph 24.2 mph N/A   Partly Cloudy
4:53 PM 59.0 °F 42.1 °F 53% 29.81 in 10.0 mi South 16.1 mph - N/A   Partly Cloudy
5:53 PM 57.9 °F 42.1 °F 56% 29.81 in 10.0 mi South 9.2 mph - N/A   Overcast
6:53 PM 52.0 °F 48.0 °F 86% 29.88 in 7.0 mi West 5.8 mph - 0.07 in Rain Rain
8:53 PM 48.9 °F 46.0 °F 90% 29.88 in 10.0 mi SSE 5.8 mph - 0.00 in   Scattered Clouds
9:53 PM 50.0 °F 46.9 °F 89% 29.89 in 10.0 mi South 5.8 mph - N/A   Mostly Cloudy
10:53 PM 48.0 °F 46.0 °F 93% 29.89 in 10.0 mi SSE 3.5 mph - 0.01 in   Mostly Cloudy